#timestamp,LO_Frequency,Hit,StdDev 
1630497615.2,286047001.1,N
1630497635.1,286047001.0,N
1630497636.0,286047001.0,N
1630497655.8,286046999.7,N
1630497675.6,286047001.1,N
1630497695.5,286046999.9,N
1630497715.3,286047000.5,N
1630497735.1,286047000.4,N
1630497755.9,286047000.3,N
1630497775.7,286047000.2,N
1630497795.6,286047000.6,N
1630497815.4,286046998.5,N
1630497835.2,286046998.6,N
1630497855.1,286046998.9,N
1630497856.0,286046998.9,N
1630497875.8,286046998.7,N
1630497895.6,286046998.8,N
1630497915.5,286046999.5,N
1630497935.3,286046998.9,N
1630497955.2,286046998.9,N
1630497975.9,286046996.9,Y
1630497995.7,286046996.5,P
1630498015.6,286046997.7,N
1630498035.4,286046996.5,N
1630498055.2,286046998.9,N
1630498075.1,286046999.6,N
1630498076.0,286046999.6,N
1630498095.8,286046998.7,N
1630498115.7,286046998.6,N
1630498135.5,286046999.2,N
1630498155.3,286046998.3,N
1630498175.2,286047001.2,N
1630498195.0,286047000.7,N
1630498195.9,286047000.7,N
1630498215.7,286046998.4,N
1630498235.6,286046999.0,N
1630498255.4,286046998.6,N
1630498275.3,286046998.3,N
1630498295.1,286046998.1,N
1630498296.0,286046998.1,N
1630498315.8,286046998.6,N
1630498335.7,286047000.8,N
1630498355.5,286046998.2,N
1630498375.4,286046999.3,N
1630498395.3,286046997.8,N
1630498415.1,286046997.3,N
1630498435.9,286046996.6,N
1630498455.7,286046998.5,N
1630498475.5,286046998.7,N
1630498495.4,286046999.5,N
1630498515.2,286046998.8,N
1630498535.0,286046998.5,N
1630498535.9,286046998.5,N
1630498555.8,286046998.7,N
1630498575.6,286046998.6,N
1630498595.5,286046998.4,N
1630498615.3,286047000.9,N
1630498635.1,286047000.7,N
1630498655.9,286047000.1,N
1630498675.7,286047001.1,N
1630498695.5,286047001.1,N
1630498715.4,286047000.0,N
1630498735.2,286046998.5,N
1630498785.1,286046998.2,E
1630498795.9,286046999.7,N
1630498815.7,286047001.4,P
1630498835.6,286047001.3,N
1630498855.4,286047002.3,N
1630498875.2,286046999.8,N
1630498895.1,286047001.0,N
1630498896.0,286047001.0,N
1630498915.8,286047001.5,N
1630498935.7,286047002.4,N
1630498955.5,286047002.7,Y
1630498975.3,286046998.1,P
1630498995.2,286046998.5,N
1630499015.0,286047001.0,N
1630499015.9,286047001.0,N
1630499035.8,286046998.3,N
1630499055.6,286047001.1,N
1630499075.4,286047000.5,N
1630499095.3,286047000.0,N
1630499115.1,286047000.3,N
1630499135.8,286047000.2,N
1630499155.7,286047002.6,N
1630499175.5,286047003.6,N
1630499195.4,286047001.8,N
1630499215.2,286047002.6,N
1630499235.0,286046999.7,N
1630499235.9,286046999.7,N
1630499255.8,286047000.9,N
1630499275.6,286047002.3,N
1630499295.4,286047002.6,N
1630499315.3,286047002.2,N
1630499335.1,286047000.4,N
1630499355.9,286046999.8,N
1630499375.7,286047000.6,N
1630499395.5,286047000.2,N
1630499415.4,286047000.4,N
1630499435.2,286047001.4,N
1630499455.1,286047004.4,Y
1630499456.0,286047004.4,P
1630499475.8,286047002.5,N
1630499495.6,286047002.6,N
1630499515.5,286046999.9,N
1630499535.3,286047000.4,N
1630499555.1,286047002.8,N
1630499575.9,286047001.1,N
1630499595.7,286047000.3,N
1630499615.6,286047000.0,N
1630499635.4,286047002.3,N
1630499655.2,286047002.1,N
1630499675.1,286047002.2,N
1630499676.0,286047002.2,N
1630499695.8,286047002.2,N
1630499715.6,286047002.0,N
1630499735.5,286047004.2,Y
1630499755.3,286047000.7,P
1630499775.2,286046998.2,P
1630499795.9,286047000.9,N
1630499815.7,286047000.5,N
1630499835.6,286047000.5,N
1630499855.4,286047002.5,N
1630499875.2,286047002.8,N
1630499895.1,286047002.6,N
1630499896.0,286047002.6,N
1630499915.8,286047000.5,N
1630499935.7,286046998.3,N
1630499955.5,286046998.2,N
1630499975.3,286046999.5,N
1630499995.2,286046996.9,N
1630500015.0,286046997.0,N
1630500015.9,286046997.0,N
1630500035.8,286046999.4,N
1630500055.3,286046996.9,N
1630500075.1,286046996.6,N
1630500095.9,286046999.1,N
1630500115.7,286046996.5,N
1630500135.6,286046998.2,N
1630500155.4,286047000.7,N
1630500175.2,286047000.8,N
1630500195.1,286047000.3,N
1630500196.0,286047000.3,N
1630500215.8,286047002.3,N
1630500235.7,286046999.8,N
1630500255.5,286047002.8,N
1630500275.3,286047000.0,N
1630500295.2,286046998.2,N
1630500315.0,286046998.1,N
1630500315.9,286046998.1,N
1630500335.8,286047001.2,N
1630500355.6,286046998.5,N
1630500375.5,286046999.3,N
1630500395.3,286046998.5,N
1630500415.1,286047000.9,N
1630500435.9,286047000.7,N
1630500455.7,286046998.4,N
1630500475.6,286046998.7,N
1630500495.4,286047000.9,N
1630500515.2,286047001.0,N
1630500535.1,286047001.1,N
1630500566.0,286046999.3,E
1630500575.0,286046999.0,N
1630500575.9,286046999.0,P
1630500595.8,286046998.4,P
1630500615.6,286046998.9,Y
1630500635.4,286046998.1,P
1630500655.3,286047000.8,N
1630500675.1,286047000.5,N
1630500695.9,286047000.4,N
1630500715.9,286047000.9,N
1630500735.7,286047000.1,N
1630500755.5,286047000.3,N
1630500775.4,286047002.2,N
1630500795.2,286047002.6,N
1630500815.0,286047002.5,N
1630500815.9,286047002.5,N
1630500835.8,286047002.3,N
1630500855.6,286047002.3,N
1630500875.5,286047002.4,N
1630500895.3,286047002.8,N
1630500915.1,286047002.3,N
1630500935.9,286047000.6,N
1630500955.7,286046998.1,N
1630500975.6,286047001.0,N
1630500995.4,286047000.0,N
1630501015.2,286047000.4,N
1630501035.1,286047000.6,N
1630501036.0,286047000.6,N
1630501055.8,286047001.8,N
1630501075.6,286047001.9,N
1630501095.5,286047001.3,N
1630501115.3,286047001.5,N
1630501135.2,286047002.0,N
1630501155.9,286047004.3,Y
1630501175.7,286047004.3,P
1630501195.6,286047002.1,N
